Quakertown, PA

10:58 AM EDT on June 22, 2017 (GMT -0400)
Quakertown

Weather History for KUKT - July, 2013

Change the Weather History Date:

Sunday, July 14, 2013

  Actual Average (KABE) Record (KABE)
Temperature  
Mean Temperature 80 °F -  
Max Temperature 89 °F 85 °F 100 °F (1954)
Min Temperature 71 °F 64 °F 50 °F (1940)
Cooling Degree Days 15    
Growing Degree Days 30 (Base 50)    
Moisture  
Dew Point 72 °F    
Average Humidity 81    
Maximum Humidity 100    
Minimum Humidity 49    
Precipitation  
Precipitation 0.00 in - - ()
Sea Level Pressure  
Sea Level Pressure 30.33 in    
Wind  
Wind Speed 2 mph (SSW)    
Max Wind Speed 8 mph    
Max Gust Speed -    
Visibility 8 miles    
Events      
Averages and records for this station are not official NWS values.
T = Trace of Precipitation, MM = Missing Value Source: NWS Daily Summary

Daily Weather History Graph

Daily Weather History Graph

Search for Another Location

Airport or City:

Trip Planner

Search our weather history database for the weather conditions in past years. The results will help you decide how hot, cold, wet, or windy it might be!

Date:

Astronomy

Jul. 14, 2013 Rise Set
Actual Time 5:43 AM EDT 8:31 PM EDT
Civil Twilight 5:11 AM EDT 9:03 PM EDT
Nautical Twilight 4:30 AM EDT 9:43 PM EDT
Astronomical Twilight 3:44 AM EDT 10:29 PM EDT
Moon 11:59 AM EDT (7/14) 11:40 PM EDT (7/14)
Length of Visible Light 15h 51m
Length of Day
14h 47m
Waxing Crescent, 35% of the Moon is Illuminated
Jul 14
Waxing Crescent
Jul 15
First Quarter
Jul 22
Full
Jul 29
Last Quarter
Aug 6
New

Hourly Weather History & Observations

Time (EDT) Temp. Heat Index Dew Point Humidity Pressure Visibility Wind Dir Wind Speed Gust Speed Precip Events Conditions
12:10 AM 73.4 °F - 73.4 °F 100% 30.32 in 9.0 mi Calm Calm - N/A   Mostly Cloudy
12:30 AM 73.4 °F - 73.4 °F 100% 30.32 in 2.5 mi Calm Calm - N/A   Mostly Cloudy
12:50 AM 71.6 °F - 71.6 °F 100% 30.32 in 1.0 mi Calm Calm - N/A   Mostly Cloudy
1:10 AM 73.4 °F - 73.4 °F 100% 30.32 in 0.8 mi Calm Calm - N/A   Overcast
1:30 AM 73.4 °F - 73.4 °F 100% 30.31 in 5.0 mi Calm Calm - N/A   Overcast
1:50 AM 73.4 °F - 73.4 °F 100% 30.31 in 2.5 mi Calm Calm - N/A   Overcast
2:10 AM 73.4 °F - 73.4 °F 100% 30.31 in 1.0 mi Calm Calm - N/A   Overcast
2:30 AM 73.4 °F - 73.4 °F 100% 30.31 in 0.5 mi Calm Calm - N/A   Overcast
2:50 AM 73.4 °F - 73.4 °F 100% 30.31 in 0.8 mi Calm Calm - N/A   Overcast
3:10 AM 73.4 °F - 73.4 °F 100% 30.31 in 0.5 mi Calm Calm - N/A   Overcast
3:30 AM 73.4 °F - 73.4 °F 100% 30.31 in 0.2 mi Calm Calm - N/A   Overcast
3:50 AM 73.4 °F - 73.4 °F 100% 30.31 in 1.5 mi Calm Calm - N/A   Overcast
4:10 AM 73.4 °F - 73.4 °F 100% 30.31 in 4.0 mi South 3.5 mph - N/A   Overcast
4:30 AM 73.4 °F - 73.4 °F 100% 30.31 in 5.0 mi Calm Calm - N/A   Overcast
4:50 AM 73.4 °F - 73.4 °F 100% 30.32 in 7.0 mi South 4.6 mph - N/A   Overcast
5:10 AM 73.4 °F - 73.4 °F 100% 30.33 in 7.0 mi SSE 3.5 mph - N/A   Overcast
5:30 AM 73.4 °F - 73.4 °F 100% 30.33 in 9.0 mi South 3.5 mph - N/A   Overcast
5:50 AM 73.4 °F - 73.4 °F 100% 30.34 in 10.0 mi Calm Calm - N/A   Overcast
6:10 AM 73.4 °F - 73.4 °F 100% 30.34 in 9.0 mi Calm Calm - N/A   Overcast
6:30 AM 73.4 °F - 73.4 °F 100% 30.35 in 7.0 mi SSW 3.5 mph - N/A   Overcast
6:50 AM 73.4 °F - 73.4 °F 100% 30.36 in 8.0 mi SSW 4.6 mph - N/A   Overcast
7:10 AM 75.2 °F - 73.4 °F 94% 30.37 in 9.0 mi Calm Calm - N/A   Overcast
7:30 AM 75.2 °F - 73.4 °F 94% 30.37 in 10.0 mi Calm Calm - N/A   Overcast
7:50 AM 75.2 °F - 73.4 °F 94% 30.37 in 10.0 mi Calm Calm - N/A   Overcast
8:10 AM 75.2 °F - 73.4 °F 94% 30.37 in 10.0 mi Calm Calm - N/A   Overcast
8:30 AM 77.0 °F - 73.4 °F 89% 30.37 in 10.0 mi Calm Calm - N/A   Overcast
8:50 AM 77.0 °F - 73.4 °F 89% 30.38 in 10.0 mi Calm Calm - N/A   Overcast
9:10 AM 77.0 °F - 73.4 °F 89% 30.38 in 10.0 mi Calm Calm - N/A   Overcast
9:30 AM 77.0 °F - 73.4 °F 89% 30.38 in 10.0 mi Calm Calm - N/A   Overcast
9:50 AM 77.0 °F - 73.4 °F 89% 30.38 in 10.0 mi Calm Calm - N/A   Overcast
10:10 AM 80.6 °F 85.4 °F 73.4 °F 79% 30.38 in 10.0 mi Calm Calm - N/A   Overcast
10:30 AM 80.6 °F 85.4 °F 73.4 °F 79% 30.37 in 10.0 mi SSW 4.6 mph - N/A   Overcast
10:50 AM 82.4 °F 88.2 °F 73.4 °F 74% 30.37 in 10.0 mi WSW 5.8 mph - N/A   Mostly Cloudy
11:10 AM 80.6 °F 85.4 °F 73.4 °F 79% 30.37 in 10.0 mi SSW 4.6 mph - N/A   Partly Cloudy
11:30 AM 84.2 °F 90.9 °F 73.4 °F 70% 30.36 in 10.0 mi SSW 5.8 mph - N/A   Partly Cloudy
11:50 AM 84.2 °F 90.9 °F 73.4 °F 70% 30.36 in 10.0 mi SSW 5.8 mph - N/A   Scattered Clouds
12:10 PM 84.2 °F 90.9 °F 73.4 °F 70% 30.36 in 10.0 mi WSW 4.6 mph - N/A   Partly Cloudy
12:30 PM 84.2 °F 90.9 °F 73.4 °F 70% 30.35 in 10.0 mi South 5.8 mph - N/A   Clear
12:50 PM 84.2 °F 90.9 °F 73.4 °F 70% 30.35 in 10.0 mi WSW 5.8 mph - N/A   Partly Cloudy
1:10 PM 86.0 °F 91.8 °F 71.6 °F 62% 30.34 in 10.0 mi SW 3.5 mph - N/A   Partly Cloudy
1:35 PM 86.0 °F 91.8 °F 71.6 °F 62% 30.34 in 10.0 mi SW 5.8 mph - N/A   Scattered Clouds
1:50 PM 86.0 °F 91.8 °F 71.6 °F 62% 30.34 in 10.0 mi WSW 4.6 mph - N/A   Partly Cloudy
2:10 PM 86.0 °F 91.8 °F 71.6 °F 62% 30.34 in 10.0 mi SW 8.1 mph - N/A   Scattered Clouds
2:30 PM 89.6 °F 96.2 °F 71.6 °F 55% 30.33 in 10.0 mi SSW 5.8 mph - N/A   Partly Cloudy
2:50 PM 86.0 °F 91.8 °F 71.6 °F 62% 30.33 in 10.0 mi WSW 3.5 mph - N/A   Mostly Cloudy
3:10 PM 86.0 °F 91.8 °F 71.6 °F 62% 30.33 in 10.0 mi WSW 5.8 mph - N/A   Mostly Cloudy
3:30 PM 89.6 °F 93.4 °F 68.0 °F 49% 30.32 in 10.0 mi SSW 8.1 mph - N/A   Partly Cloudy
3:50 PM 89.6 °F 94.7 °F 69.8 °F 52% 30.32 in 10.0 mi SSW 6.9 mph - N/A   Clear
4:10 PM 89.6 °F 94.7 °F 69.8 °F 52% 30.31 in 10.0 mi SSW 6.9 mph - N/A   Clear
4:30 PM 89.6 °F 93.4 °F 68.0 °F 49% 30.31 in 10.0 mi SW 8.1 mph - N/A   Clear
4:50 PM 89.6 °F 93.4 °F 68.0 °F 49% 30.31 in 10.0 mi SSW 8.1 mph - N/A   Clear
5:10 PM 89.6 °F 94.7 °F 69.8 °F 52% 30.30 in 10.0 mi SSW 5.8 mph - N/A   Clear
5:30 PM 87.8 °F 91.4 °F 68.0 °F 52% 30.30 in 10.0 mi SSW 6.9 mph - N/A   Clear
5:50 PM 87.8 °F 92.6 °F 69.8 °F 55% 30.30 in 10.0 mi SSW 5.8 mph - N/A   Clear
6:10 PM 87.8 °F 92.6 °F 69.8 °F 55% 30.30 in 10.0 mi SSW 6.9 mph - N/A   Clear
6:30 PM 86.0 °F 90.4 °F 69.8 °F 58% 30.29 in 10.0 mi South 3.5 mph - N/A   Clear
6:50 PM 86.0 °F 90.4 °F 69.8 °F 58% 30.29 in 10.0 mi South 3.5 mph - N/A   Clear
7:10 PM 86.0 °F 91.8 °F 71.6 °F 62% 30.29 in 10.0 mi SSW 3.5 mph - N/A   Clear
7:30 PM 86.0 °F 91.8 °F 71.6 °F 62% 30.29 in 10.0 mi South 3.5 mph - N/A   Clear
7:50 PM 84.2 °F 89.6 °F 71.6 °F 66% 30.29 in 10.0 mi Calm Calm - N/A   Clear
8:10 PM 84.2 °F 90.9 °F 73.4 °F 70% 30.29 in 10.0 mi Calm Calm - N/A   Clear
8:30 PM 82.4 °F 88.2 °F 73.4 °F 74% 30.29 in 10.0 mi Calm Calm - N/A   Clear
8:50 PM 78.8 °F - 73.4 °F 83% 30.30 in 10.0 mi Calm Calm - N/A   Clear
9:10 PM 77.0 °F - 73.4 °F 89% 30.30 in 10.0 mi SSW 3.5 mph - N/A   Clear
9:30 PM 77.0 °F - 73.4 °F 89% 30.31 in 10.0 mi Calm Calm - N/A   Clear
9:50 PM 77.0 °F - 73.4 °F 89% 30.31 in 10.0 mi SSW 3.5 mph - N/A   Clear
10:10 PM 75.2 °F - 73.4 °F 94% 30.31 in 10.0 mi Calm Calm - N/A   Clear
10:30 PM 77.0 °F - 71.6 °F 83% 30.31 in 10.0 mi South 4.6 mph - N/A   Clear
10:50 PM 77.0 °F - 71.6 °F 83% 30.31 in 10.0 mi Calm Calm - N/A   Clear
11:10 PM 75.2 °F - 71.6 °F 89% 30.30 in 10.0 mi Calm Calm - N/A   Clear
11:30 PM 75.2 °F - 71.6 °F 89% 30.30 in 10.0 mi SSW 3.5 mph - N/A   Clear
11:50 PM 75.2 °F - 71.6 °F 89% 30.30 in 10.0 mi Calm Calm - N/A   Clear